Location: Cherry Springs State Park
(41.6616°N, 77.8240°W)
Time: 12:38:50
(UTC-04:00)

Amateur Radio Satellites - All Passes

Search period start: 27 June 2016 12:08
Search period end: 28 June 2016 12:08
Location: Cherry Springs State Park, 41.6616°N, 77.8240°W

Satellite Date Start Highest point End Downlink Frequencies (MHz)
Time Altitude Azimuth
JAS-2 27 Jun 12:13:19 12:20:27 44° 68° (ENE) 12:27:01 435.910
BUGSAT 1 27 Jun 12:16:58 12:20:56 64° 75° (ENE) 12:24:55 437.445
ESTCUBE 1 27 Jun 12:17:47 12:22:06 44° 99° (E) 12:26:22 437.505/2401.250
Cosmos 2491 27 Jun 12:18:27 12:27:09 66° 79° (E) 12:35:46 435.465 / 435.565
RS-15 27 Jun 12:19:24 12:30:28 62° 114° (ESE) 12:42:09 29.354- 29.394
AISAT 27 Jun 12:28:07 12:32:11 36° 98° (E) 12:36:14 437.250
NANOSAT C BR1 27 Jun 12:29:13 12:33:06 37° 262° (W) 12:37:01 145.865
Oscar 19 27 Jun 12:29:18 12:32:36 17° 62° (ENE) 12:35:55 437.125/150
QB50P1 27 Jun 12:31:27 12:35:16 34° 263° (W) 12:39:07 145.935-145.965
POPSAT HIP 1 27 Jun 12:34:37 12:38:22 32° 263° (W) 12:42:08 437.405
UKube-1 27 Jun 12:36:32 12:40:09 26° 96° (E) 12:43:46 .
BEESAT 3 27 Jun 12:36:36 12:40:32 60° 240° (WSW) 12:44:24 437.485
SPROUT 27 Jun 12:41:07 12:44:22 21° 94° (E) 12:47:39 437.525
ISS 27 Jun 12:42:11 12:44:08 15° 355° (N) 12:46:06 145.825
QB50P2 27 Jun 12:47:07 12:50:25 22° 266° (W) 12:53:44 145.880/145.840
POLYITAN 1 27 Jun 12:49:47 12:53:03 22° 266° (W) 12:56:19 437.675
DUCHIFAT 1 27 Jun 12:51:11 12:54:32 23° 265° (W) 12:57:54 145.980
HUMSAT D 27 Jun 12:52:07 12:54:33 15° 296° (WNW) 12:56:59 437.325/437.525
DX 1 27 Jun 12:53:15 12:57:28 50° 100° (E) 13:01:40 434.975-435.025
PCSat 27 Jun 13:01:17 13:06:17 38° 249° (WSW) 13:11:15 145.827
50 SAT 27 Jun 13:05:49 13:09:30 69° 285° (WNW) 13:13:08 437.505
BEESAT 2 27 Jun 13:11:40 13:15:30 46° 242° (WSW) 13:19:18 435.950
CUBEBUG 1 27 Jun 13:19:24 13:23:39 57° 287° (WNW) 13:27:52 437.445
VELOX 1 27 Jun 13:23:39 13:27:58 58° 286° (WNW) 13:32:16 145.980
O/OREOS (USA 219) 27 Jun 13:31:25 13:35:55 81° 250° (WSW) 13:40:24 437.305
PHONESAT 2.4 27 Jun 13:33:57 13:35:01 11° 212° (SSW) 13:36:06 2401.200-2431.200
AIST 2 27 Jun 13:42:03 13:45:25 23° 46° (NE) 13:48:47 435.215
AO-7 27 Jun 13:55:24 14:00:43 19° 49° (NE) 14:06:01 29.400- 29.500
ESTCUBE 1 27 Jun 13:55:27 13:58:34 19° 295° (WNW) 14:01:41 437.505/2401.250
JAS-2 27 Jun 13:58:19 14:05:25 39° 263° (W) 14:12:03 435.910
YUBILEINY 27 Jun 14:00:24 14:09:05 75° 279° (W) 14:17:53 435.215
AISAT 27 Jun 14:05:07 14:08:26 21° 294° (WNW) 14:11:44 437.250
Cosmos 2504 27 Jun 14:05:55 14:13:18 41° 86° (E) 14:21:10 435.465 / 435.565
TISAT 1 27 Jun 14:06:01 14:10:04 45° 99° (E) 14:14:07 437.305
Oscar 19 27 Jun 14:06:19 14:11:25 62° 259° (WSW) 14:16:32 437.125/150
Gurwin Techsat 1B 27 Jun 14:12:02 14:17:17 66° 73° (ENE) 14:22:34 435.225
UKube-1 27 Jun 14:12:29 14:16:09 28° 292° (WNW) 14:19:48 .
Cosmos 2491 27 Jun 14:16:24 14:23:14 27° 279° (W) 14:30:03 435.465 / 435.565
SPROUT 27 Jun 14:16:32 14:20:24 33° 290° (WNW) 14:24:14 437.525
ISS 27 Jun 14:19:06 14:21:31 19° 15° (NNE) 14:23:57 145.825
BEESAT 27 Jun 14:20:05 14:22:07 12° 90° (E) 14:24:08 436.000
ITUPSAT 1 27 Jun 14:20:16 14:22:14 12° 90° (E) 14:24:11 437.325
ITAMSAT 1 27 Jun 14:26:18 14:30:55 33° 67° (ENE) 14:35:35 435.822/435.867
DX 1 27 Jun 14:30:39 14:33:15 16° 297° (WNW) 14:35:52 434.975-435.025
RS-15 27 Jun 14:32:28 14:43:27 46° 319° (NW) 14:55:02 29.354- 29.394
AIST 2 27 Jun 15:20:09 15:24:01 38° 244° (WSW) 15:27:52 435.215
SWISSCUBE 27 Jun 15:30:06 15:34:55 73° 103° (ESE) 15:39:41 437.505
SO-50 27 Jun 15:32:27 15:35:27 16° 109° (ESE) 15:38:27 436.795
TISAT 1 27 Jun 15:42:45 15:45:22 16° 295° (WNW) 15:47:58 437.305
AO-7 27 Jun 15:43:51 15:52:09 77° 69° (ENE) 16:00:32 29.400- 29.500
HORYU 2 27 Jun 15:54:34 15:56:43 13° 62° (ENE) 15:58:52 437.375
Gurwin Techsat 1B 27 Jun 15:54:34 15:57:42 16° 269° (W) 16:00:51 435.225
ISS 27 Jun 15:55:08 15:58:24 74° 34° (NE) 16:01:39 145.825
BEESAT 27 Jun 15:55:35 16:00:22 70° 287° (WNW) 16:05:07 436.000
ITUPSAT 1 27 Jun 15:55:45 16:00:34 71° 286° (WNW) 16:05:20 437.325
Cosmos 2504 27 Jun 15:58:58 16:06:36 43° 287° (WNW) 16:14:46 435.465 / 435.565
YUBILEINY 27 Jun 16:02:50 16:07:35 15° 302° (WNW) 16:12:23 435.215
ITAMSAT 1 27 Jun 16:05:47 16:10:21 31° 264° (W) 16:14:59 435.822/435.867
MOZHAYETS 4 27 Jun 16:46:00 16:50:29 46° 99° (E) 16:54:55
RS-15 27 Jun 16:51:02 17:00:11 24° 352° (N) 17:09:35 29.354- 29.394
CUTE-I 27 Jun 17:00:36 17:02:28 12° 57° (ENE) 17:04:20 437.470
KKS-1 27 Jun 17:04:47 17:09:15 80° 103° (ESE) 17:13:42 437.445
SWISSCUBE 27 Jun 17:09:46 17:12:05 14° 300° (WNW) 17:14:24 437.505
SO-50 27 Jun 17:10:34 17:15:26 65° 306° (NW) 17:20:18 436.795
BRITE-PL 27 Jun 17:20:03 17:23:39 20° 67° (ENE) 17:27:04 437.365/2234.400
AIST 1 27 Jun 17:23:20 17:27:25 42° 92° (E) 17:31:29
HORYU 2 27 Jun 17:28:20 17:32:43 64° 258° (WSW) 17:37:09 437.375
NOAA 15 27 Jun 17:29:47 17:34:17 29° 66° (ENE) 17:38:48 137.62
ISS 27 Jun 17:32:56 17:34:26 13° 230° (SW) 17:35:56 145.825
AO-7 27 Jun 17:39:29 17:45:42 23° 268° (W) 17:51:58 29.400- 29.500
STARS 27 Jun 17:40:19 17:44:44 84° 286° (WNW) 17:49:09 437.465
LilacSat-2 27 Jun 17:44:11 17:46:46 18° 67° (ENE) 17:49:22 437.200
NOAA 18 27 Jun 17:46:51 17:51:43 35° 66° (ENE) 17:56:38 137.9125
GOMX 1 27 Jun 18:00:02 18:03:26 21° 67° (ENE) 18:06:42 467.674
Cubesat XI-IV 27 Jun 18:02:01 18:06:58 40° 68° (ENE) 18:11:58 437.490
GONETS M04 27 Jun 18:03:14 18:10:25 30° 83° (E) 18:17:35
CUBESAT XI-V 27 Jun 18:10:19 18:14:43 41° 98° (E) 18:19:03 437.345
MOZHAYETS 4 27 Jun 18:24:03 18:27:18 19° 295° (WNW) 18:30:32
HO-68 27 Jun 18:27:12 18:31:05 16° 52° (NE) 18:34:59 435.675
CUTE-I 27 Jun 18:36:18 18:41:38 82° 75° (ENE) 18:47:02 437.470
KKS-1 27 Jun 18:43:56 18:45:10 11° 300° (WNW) 18:46:24 437.445
Cosmos 2499 27 Jun 18:45:44 18:53:07 37° 85° (E) 19:00:53 435.465 / 435.565
SO-50 27 Jun 18:54:38 18:56:52 13° 325° (NW) 18:59:05 436.795
BRITE-PL 27 Jun 18:56:55 19:01:52 47° 260° (W) 19:06:28 437.365/2234.400
CUSAT 1 27 Jun 19:02:18 19:06:06 55° 77° (ENE) 19:09:05 437.405
AIST 1 27 Jun 19:02:27 19:05:14 16° 289° (WNW) 19:07:59
DOVE 4 27 Jun 19:05:17 19:09:24 42° 73° (ENE) 19:13:23 437.250
STRAND 1 27 Jun 19:05:25 19:06:39 11° 88° (E) 19:07:53 437.568
RS-15 27 Jun 19:07:36 19:18:07 31° 27° (NNE) 19:28:41 29.354- 29.394
NOAA 15 27 Jun 19:09:04 19:13:55 36° 262° (W) 19:18:48 137.62
DANDE 27 Jun 19:14:01 19:18:40 32° 69° (ENE) 19:22:15 436.750
LilacSat-2 27 Jun 19:17:27 19:20:50 31° 263° (W) 19:24:16 437.200
NOAA 18 27 Jun 19:27:30 19:32:21 32° 263° (W) 19:37:14 137.9125
GOMX 1 27 Jun 19:36:59 19:41:20 38° 262° (W) 19:45:28 467.674
Cubesat XI-IV 27 Jun 19:42:42 19:47:09 26° 265° (W) 19:51:37 437.490
CANX-2 27 Jun 19:45:26 19:49:17 34° 70° (ENE) 19:53:10 2200.000
CUBESAT XI-V 27 Jun 19:48:24 19:51:47 21° 295° (WNW) 19:55:10 437.345
COMPASS 1 27 Jun 19:52:37 19:55:32 19° 66° (ENE) 19:58:27 437.405
M-CUBED/EXP-1 PRIME 27 Jun 19:53:00 19:53:25 10° 59° (ENE) 19:53:50 437.505
GONETS M04 27 Jun 19:58:06 20:06:39 59° 283° (WNW) 20:15:15
CUTE 1.7 + AOD 2 27 Jun 20:05:20 20:09:27 49° 73° (ENE) 20:13:37 437.475
CINEMA 3 27 Jun 20:08:56 20:13:01 60° 74° (ENE) 20:17:07 145.822/145.860
HO-68 27 Jun 20:10:30 20:17:38 76° 71° (ENE) 20:24:49 435.675
SEEDS 27 Jun 20:11:29 20:15:28 41° 72° (ENE) 20:19:28 437.485
CUBEBUG 2 27 Jun 20:14:24 20:17:32 21° 66° (ENE) 20:20:43 437.445
CUTE-I 27 Jun 20:20:11 20:22:19 12° 271° (W) 20:24:28 437.470
Cosmos 2499 27 Jun 20:38:00 20:45:58 49° 286° (WNW) 20:54:26 435.465 / 435.565
STRAND 1 27 Jun 20:41:17 20:46:29 87° 283° (WNW) 20:51:37 437.568
DOVE 4 27 Jun 20:44:37 20:47:18 16° 267° (W) 20:49:56 437.250
ZACube-1 27 Jun 20:45:23 20:48:33 21° 66° (ENE) 20:51:45 437.345
AUBIESAT-1 27 Jun 20:46:02 20:49:07 37° 67° (ENE) 20:52:13 437.475
AAUSAT CUBESAT 2 27 Jun 20:53:29 20:57:39 69° 76° (ENE) 21:01:51 437.432
Oscar 11 27 Jun 20:56:40 21:00:28 30° 69° (ENE) 21:04:16 145.826/435.025
DANDE 27 Jun 20:57:30 21:01:04 20° 277° (W) 21:04:01 436.750
AO-85 27 Jun 21:02:54 21:06:15 17° 108° (ESE) 21:09:34 145.980
FUNcube-1 27 Jun 21:02:58 21:06:36 30° 69° (ENE) 21:10:20 145.935
UWE-3 27 Jun 21:03:00 21:07:00 48° 73° (ENE) 21:11:07 435.000/436.395/437.385
DELFI C3 27 Jun 21:15:10 21:18:12 21° 67° (ENE) 21:21:14 145.870
RS-15 27 Jun 21:20:36 21:33:01 78° 55° (NE) 21:45:19 29.354- 29.394
CANX-2 27 Jun 21:21:57 21:25:12 21° 267° (W) 21:28:29 2200.000
M-CUBED/EXP-1 PRIME 27 Jun 21:24:27 21:27:36 44° 255° (WSW) 21:30:46 437.505
COMPASS 1 27 Jun 21:26:51 21:30:48 39° 262° (W) 21:34:47 437.405
PRISM 27 Jun 21:41:38 21:45:43 66° 102° (ESE) 21:49:44 437.425
CUTE 1.7 + AOD 2 27 Jun 21:43:11 21:45:34 15° 269° (W) 21:47:58 437.475
SEEDS 27 Jun 21:48:32 21:51:20 17° 268° (W) 21:54:10 437.485
CINEMA 3 27 Jun 21:49:38 21:50:34 11° 271° (W) 21:51:31 145.822/145.860
CUBEBUG 2 27 Jun 21:50:13 21:53:58 33° 264° (W) 21:57:48 437.445
HO-68 27 Jun 22:01:01 22:06:00 20° 269° (W) 22:11:02 435.675
GONETS M04 27 Jun 22:03:19 22:05:40 11° 306° (NW) 22:08:02
HUMSAT D 27 Jun 22:06:32 22:10:21 36° 71° (ENE) 22:14:15 437.325/437.525
UNISAT 6 27 Jun 22:14:31 22:15:49 11° 89° (E) 22:17:06 437.425
YUBILEINY 27 Jun 22:17:50 22:19:52 11° 53° (NE) 22:21:55 435.215
ZACube-1 27 Jun 22:20:48 22:24:36 34° 263° (W) 22:28:31 437.345
AUBIESAT-1 27 Jun 22:23:01 22:23:51 11° 263° (W) 22:24:41 437.475
STRAND 1 27 Jun 22:23:01 22:24:51 12° 302° (WNW) 22:26:40 437.568
Oscar 11 27 Jun 22:33:04 22:36:35 24° 265° (W) 22:40:08 145.826/435.025
FUNcube-1 27 Jun 22:39:32 22:42:52 23° 266° (W) 22:46:17 145.935
AO-85 27 Jun 22:40:48 22:46:14 73° 304° (NW) 22:51:29 145.980
UWE-3 27 Jun 22:41:33 22:43:46 14° 269° (W) 22:46:03 435.000/436.395/437.385
CUBEBUG 1 27 Jun 22:42:03 22:43:44 12° 62° (ENE) 22:45:25 437.445
VELOX 1 27 Jun 22:47:10 22:49:13 13° 62° (ENE) 22:51:16 145.980
DELFI C3 27 Jun 22:49:16 22:52:52 31° 264° (W) 22:56:29 145.870
ANTELSAT 27 Jun 22:52:04 22:56:05 28° 95° (E) 23:00:06 437.575/2403.000
ESTCUBE 1 27 Jun 23:17:17 23:21:33 42° 71° (ENE) 23:25:49 437.505/2401.250
PRISM 27 Jun 23:19:15 23:20:27 11° 298° (WNW) 23:21:39 437.425
AISAT 27 Jun 23:25:39 23:29:36 33° 69° (ENE) 23:33:34 437.250
Cosmos 2491 27 Jun 23:28:58 23:32:49 14° 74° (ENE) 23:36:39 435.465 / 435.565
UKube-1 27 Jun 23:31:26 23:34:52 24° 67° (ENE) 23:38:19 .
RS-15 27 Jun 23:34:14 23:44:23 32° 257° (WSW) 23:54:28 29.354- 29.394
SPROUT 27 Jun 23:35:28 23:38:16 17° 65° (ENE) 23:41:04 437.525
HUMSAT D 27 Jun 23:43:11 23:46:06 18° 267° (W) 23:49:05 437.325/437.525
50 SAT 27 Jun 23:43:30 23:47:06 51° 74° (ENE) 23:50:44 437.505
TIGRISAT 27 Jun 23:43:31 23:48:11 89° 284° (WNW) 23:52:53 435.000
UNISAT 6 27 Jun 23:48:21 23:53:00 76° 285° (WNW) 23:57:41 437.425
DX 1 27 Jun 23:48:46 23:52:54 44° 71° (ENE) 23:57:02 434.975-435.025
Cosmos 2504 27 Jun 23:59:06 00:04:21 17° 59° (ENE) 00:09:30 435.465 / 435.565
SO-50 28 Jun 00:02:26 00:05:45 19° 40° (NE) 00:09:01 436.795
YUBILEINY 28 Jun 00:10:17 00:18:58 57° 77° (ENE) 00:27:37 435.215
NANOSAT C BR1 28 Jun 00:13:12 00:17:01 31° 97° (E) 00:20:48 145.865
CUBEBUG 1 28 Jun 00:15:06 00:19:27 69° 259° (W) 00:23:48 437.445
QB50P1 28 Jun 00:15:35 00:19:30 35° 98° (E) 00:23:24 145.935-145.965
POPSAT HIP 1 28 Jun 00:18:40 00:22:38 37° 98° (E) 00:26:37 437.405
VELOX 1 28 Jun 00:20:46 00:25:08 65° 258° (WSW) 00:29:32 145.980
AO-85 28 Jun 00:24:27 00:27:34 15° 323° (NW) 00:30:37 145.980
ANTELSAT 28 Jun 00:28:41 00:32:44 30° 291° (WNW) 00:36:48 437.575/2403.000
QB50P2 28 Jun 00:30:36 00:34:49 56° 101° (E) 00:38:59 145.880/145.840
POLYITAN 1 28 Jun 00:33:13 00:37:26 57° 100° (E) 00:41:39 437.675
DUCHIFAT 1 28 Jun 00:33:59 00:38:08 50° 101° (E) 00:42:15 145.980
ESTCUBE 1 28 Jun 00:55:18 00:58:32 19° 267° (W) 01:01:46 437.505/2401.250
TISAT 1 28 Jun 00:57:52 01:01:38 34° 70° (ENE) 01:05:25 437.305
AISAT 28 Jun 01:02:41 01:06:08 22° 265° (W) 01:09:35 437.250
SWISSCUBE 28 Jun 01:03:26 01:04:17 10° 58° (ENE) 01:05:09 437.505
UKube-1 28 Jun 01:06:55 01:10:45 31° 263° (W) 01:14:37 .
JAS-2 28 Jun 01:08:40 01:13:29 28° 94° (E) 01:17:59 435.910
SPROUT 28 Jun 01:09:51 01:13:53 42° 261° (W) 01:17:57 437.525
Cosmos 2491 28 Jun 01:19:18 01:28:02 75° 94° (E) 01:36:46 435.465 / 435.565
50 SAT 28 Jun 01:20:20 01:21:05 10° 270° (W) 01:21:50 437.505
TIGRISAT 28 Jun 01:23:22 01:24:08 10° 300° (WNW) 01:24:55 435.000
BEESAT 28 Jun 01:26:30 01:29:26 16° 62° (ENE) 01:32:22 436.000
DX 1 28 Jun 01:26:32 01:29:18 16° 267° (W) 01:32:04 434.975-435.025
ITUPSAT 1 28 Jun 01:26:58 01:29:54 16° 62° (ENE) 01:32:51 437.325
BUGSAT 1 28 Jun 01:33:31 01:37:36 74° 285° (WNW) 01:41:44 437.445
SO-50 28 Jun 01:42:05 01:46:44 68° 240° (WSW) 01:51:12 436.795
NANOSAT C BR1 28 Jun 01:49:15 01:52:34 23° 293° (WNW) 01:55:54 145.865
Cosmos 2504 28 Jun 01:50:27 01:59:24 76° 81° (E) 02:07:57 435.465 / 435.565
QB50P1 28 Jun 01:51:53 01:55:03 21° 294° (WNW) 01:58:13 145.935-145.965
POPSAT HIP 1 28 Jun 01:55:06 01:58:10 20° 294° (WNW) 02:01:14 437.405
PCSat 28 Jun 02:00:25 02:04:51 26° 108° (ESE) 02:09:18 145.827
YUBILEINY 28 Jun 02:07:49 02:15:16 32° 277° (W) 02:22:44 435.215
QB50P2 28 Jun 02:07:56 02:10:09 14° 297° (WNW) 02:12:22 145.880/145.840
O/OREOS (USA 219) 28 Jun 02:08:18 02:09:26 11° 97° (E) 02:10:33 437.305
POLYITAN 1 28 Jun 02:10:35 02:12:45 14° 297° (WNW) 02:14:56 437.675
DUCHIFAT 1 28 Jun 02:10:59 02:13:24 15° 296° (WNW) 02:15:48 145.980
Oscar 19 28 Jun 02:17:38 02:22:33 45° 99° (E) 02:27:27 437.125/150
BEESAT 3 28 Jun 02:28:08 02:31:02 20° 112° (ESE) 02:33:56 437.485
Gurwin Techsat 1B 28 Jun 02:28:35 02:32:57 25° 94° (E) 02:37:19 435.225
TISAT 1 28 Jun 02:34:21 02:37:22 19° 266° (W) 02:40:25 437.305
SWISSCUBE 28 Jun 02:36:30 02:41:17 85° 79° (ENE) 02:46:07 437.505
ITAMSAT 1 28 Jun 02:41:32 02:42:38 11° 88° (E) 02:43:45 435.822/435.867
JAS-2 28 Jun 02:53:31 02:58:42 36° 294° (WNW) 03:03:28 435.910
BEESAT 28 Jun 03:02:01 03:06:43 59° 258° (WSW) 03:11:28 436.000
ITUPSAT 1 28 Jun 03:02:31 03:07:14 60° 259° (WSW) 03:12:01 437.325
BEESAT 2 28 Jun 03:03:55 03:07:17 27° 114° (ESE) 03:10:40 435.950
Cosmos 2491 28 Jun 03:19:00 03:25:46 24° 295° (WNW) 03:32:34 435.465 / 435.565
AIST 1 28 Jun 03:32:14 03:33:24 11° 68° (ENE) 03:34:34
PCSat 28 Jun 03:42:48 03:47:59 45° 306° (NW) 03:53:12 145.827
O/OREOS (USA 219) 28 Jun 03:43:42 03:48:11 70° 294° (WNW) 03:52:40 437.305
Cosmos 2504 28 Jun 03:45:16 03:51:48 24° 281° (W) 03:58:09 435.465 / 435.565
AO-7 28 Jun 03:46:16 03:52:47 24° 93° (E) 03:59:14 29.400- 29.500
MOZHAYETS 4 28 Jun 03:47:50 03:52:13 44° 71° (ENE) 03:56:38
Oscar 19 28 Jun 03:57:37 04:01:35 23° 296° (WNW) 04:05:32 437.125/150
KKS-1 28 Jun 04:02:45 04:07:08 74° 76° (ENE) 04:11:34 437.445
BEESAT 3 28 Jun 04:04:50 04:08:29 36° 309° (NW) 04:12:09 437.485
Gurwin Techsat 1B 28 Jun 04:08:03 04:13:01 41° 291° (WNW) 04:17:59 435.225
GONETS M04 28 Jun 04:13:28 04:17:56 15° 58° (ENE) 04:22:22
ITAMSAT 1 28 Jun 04:17:31 04:22:47 89° 285° (WNW) 04:28:01 435.822/435.867
STARS 28 Jun 04:36:50 04:41:11 87° 81° (E) 04:45:35 437.465
Cosmos 2499 28 Jun 04:38:12 04:42:27 14° 56° (NE) 04:46:37 435.465 / 435.565
BEESAT 2 28 Jun 04:41:35 04:45:02 28° 311° (NW) 04:48:32 435.950
AIST 1 28 Jun 05:07:14 05:11:28 64° 265° (W) 05:15:40
CUBESAT XI-V 28 Jun 05:13:32 05:17:58 42° 71° (ENE) 05:22:23 437.345
AIST 2 28 Jun 05:17:29 05:21:19 39° 116° (ESE) 05:25:11 435.215
HORYU 2 28 Jun 05:19:30 05:23:07 23° 95° (E) 05:26:43 437.375
MOZHAYETS 4 28 Jun 05:26:22 05:29:35 18° 268° (W) 05:32:49
AO-85 28 Jun 05:33:47 05:36:38 16° 37° (NE) 05:39:20 145.980
AO-7 28 Jun 05:37:52 05:46:14 74° 292° (WNW) 05:54:33 29.400- 29.500
KKS-1 28 Jun 05:44:01 05:44:13 10° 271° (W) 05:44:25 437.445
ITAMSAT 1 28 Jun 05:59:19 06:01:28 13° 302° (WNW) 06:03:37 435.822/435.867
GONETS M04 28 Jun 06:07:46 06:16:31 72° 81° (E) 06:25:14
NOAA 18 28 Jun 06:10:01 06:12:43 14° 90° (E) 06:15:24 137.9125
Cubesat XI-IV 28 Jun 06:20:12 06:23:21 16° 91° (E) 06:26:28 437.490
STRAND 1 28 Jun 06:20:21 06:23:46 18° 62° (ENE) 06:27:11 437.568
CUSAT 1 28 Jun 06:23:36 06:26:56 14° 83° (E) 06:30:04 437.405
Cosmos 2499 28 Jun 06:28:45 06:37:33 67° 79° (E) 06:45:48 435.465 / 435.565
LilacSat-2 28 Jun 06:50:29 06:53:44 25° 95° (E) 06:56:58 437.200
CUBESAT XI-V 28 Jun 06:52:03 06:55:29 20° 267° (W) 06:58:58 437.345
CUTE-I 28 Jun 06:53:30 06:58:18 32° 96° (E) 07:03:04 437.470
HORYU 2 28 Jun 06:55:40 06:59:42 33° 291° (WNW) 07:03:44 437.375
AIST 2 28 Jun 06:56:39 06:59:56 22° 314° (NW) 07:03:14 435.215
BRITE-PL 28 Jun 07:01:19 07:05:22 49° 99° (E) 07:09:25 437.365/2234.400
DOVE 4 28 Jun 07:05:34 07:06:41 11° 90° (E) 07:07:48 437.250
AO-85 28 Jun 07:13:14 07:17:45 78° 240° (WSW) 07:21:53 145.980
NOAA 15 28 Jun 07:23:22 07:28:39 82° 104° (ESE) 07:33:53 137.62
AO-7 28 Jun 07:32:30 07:37:37 18° 312° (NW) 07:42:44 29.400- 29.500
GOMX 1 28 Jun 07:37:40 07:41:48 54° 100° (E) 07:46:04 467.674
PHONESAT 2.4 28 Jun 07:39:28 07:42:08 27° 158° (SSE) 07:44:48 2401.200-2431.200
HO-68 28 Jun 07:40:55 07:43:53 13° 87° (E) 07:46:50 435.675
NOAA 18 28 Jun 07:48:24 07:53:58 80° 287° (WNW) 07:59:31 137.9125
STRAND 1 28 Jun 07:57:23 08:02:27 60° 259° (W) 08:07:34 437.568
Cubesat XI-IV 28 Jun 07:58:32 08:03:54 68° 287° (WNW) 08:09:13 437.490
CUSAT 1 28 Jun 08:00:27 08:08:18 76° 97° (E) 08:14:56 437.405
CINEMA 3 28 Jun 08:03:56 08:06:36 15° 92° (E) 08:09:19 145.822/145.860
GONETS M04 28 Jun 08:05:57 08:12:26 24° 280° (W) 08:18:58
DANDE 28 Jun 08:17:24 08:25:31 55° 93° (E) 08:33:06 436.750
Cosmos 2499 28 Jun 08:23:00 08:29:51 27° 279° (W) 08:36:26 435.465 / 435.565
LilacSat-2 28 Jun 08:24:49 08:27:56 23° 291° (WNW) 08:31:02 437.200
PRISM 28 Jun 08:30:57 08:34:57 48° 72° (ENE) 08:38:58 437.425
CUTE-I 28 Jun 08:33:30 08:38:18 34° 293° (WNW) 08:43:05 437.470
ISS 28 Jun 08:35:28 08:37:52 19° 133° (SE) 08:40:17 145.825
AAUSAT CUBESAT 2 28 Jun 08:38:28 08:39:10 10° 89° (E) 08:39:51 437.432
DOVE 4 28 Jun 08:40:28 08:44:45 67° 285° (WNW) 08:49:15 437.250
BRITE-PL 28 Jun 08:41:18 08:43:29 14° 296° (WNW) 08:45:39 437.365/2234.400
UWE-3 28 Jun 08:54:43 08:55:44 11° 89° (E) 08:56:45 435.000/436.395/437.385
NOAA 15 28 Jun 09:05:07 09:07:43 14° 301° (WNW) 09:10:19 137.62
CANX-2 28 Jun 09:05:28 09:09:45 66° 101° (E) 09:13:59 2200.000
COMPASS 1 28 Jun 09:09:28 09:13:13 31° 96° (E) 09:16:54 437.405
PHONESAT 2.4 28 Jun 09:15:27 09:18:30 67° 174° (S) 09:21:34 2401.200-2431.200
GOMX 1 28 Jun 09:17:27 09:19:30 13° 296° (WNW) 09:21:35 467.674
HO-68 28 Jun 09:25:25 09:32:40 78° 105° (ESE) 09:39:52 435.675
CUTE 1.7 + AOD 2 28 Jun 09:25:34 09:29:53 85° 280° (W) 09:34:08 437.475
SEEDS 28 Jun 09:30:25 09:34:41 79° 103° (ESE) 09:38:53 437.485
NOAA 18 28 Jun 09:31:39 09:33:44 12° 304° (NW) 09:35:49 137.9125
CINEMA 3 28 Jun 09:39:34 09:43:59 55° 286° (WNW) 09:48:36 145.822/145.860
CUBEBUG 2 28 Jun 09:39:46 09:44:14 48° 99° (E) 09:48:47 437.445
CUSAT 1 28 Jun 09:45:05 09:50:44 22° 291° (WNW) 09:55:46 437.405
ANTELSAT 28 Jun 09:51:31 09:54:59 24° 67° (ENE) 09:58:32 437.575/2403.000
AUBIESAT-1 28 Jun 09:57:39 10:01:12 31° 103° (ESE) 10:04:57 437.475
DANDE 28 Jun 10:01:00 10:08:33 36° 289° (WNW) 10:15:36 436.750
ZACube-1 28 Jun 10:08:10 10:12:31 43° 98° (E) 10:16:53 437.345
PRISM 28 Jun 10:08:18 10:10:31 14° 268° (W) 10:12:44 437.425
ISS 28 Jun 10:10:53 10:14:04 50° 329° (NNW) 10:17:17 145.825
AAUSAT CUBESAT 2 28 Jun 10:10:56 10:15:04 64° 285° (WNW) 10:19:10 437.432
Oscar 11 28 Jun 10:18:59 10:23:19 59° 101° (E) 10:27:36 145.826/435.025
FUNcube-1 28 Jun 10:25:52 10:30:24 64° 101° (E) 10:34:56 145.935
DELFI C3 28 Jun 10:26:28 10:30:02 30° 96° (E) 10:33:34 145.870
UWE-3 28 Jun 10:28:04 10:32:39 77° 285° (WNW) 10:37:18 435.000/436.395/437.385
M-CUBED/EXP-1 PRIME 28 Jun 10:36:21 10:40:13 75° 290° (WNW) 10:44:23 437.505
TIGRISAT 28 Jun 10:42:16 10:46:33 81° 74° (ENE) 10:50:57 435.000
CANX-2 28 Jun 10:43:20 10:45:02 12° 298° (WNW) 10:46:45 2200.000
BEESAT 3 28 Jun 10:44:52 10:47:24 16° 43° (NE) 10:49:55 437.485
COMPASS 1 28 Jun 10:45:20 10:48:35 22° 293° (WNW) 10:51:51 437.405
UNISAT 6 28 Jun 10:47:15 10:51:33 84° 254° (WSW) 10:55:59 437.425
PCSat 28 Jun 10:47:21 10:51:50 25° 47° (NE) 10:56:17 145.827
PHONESAT 2.4 28 Jun 10:52:01 10:55:02 57° 190° (S) 10:58:04 2401.200-2431.200
NANOSAT C BR1 28 Jun 11:05:49 11:09:12 24° 68° (ENE) 11:12:35 145.865
QB50P1 28 Jun 11:08:24 11:11:57 27° 68° (ENE) 11:15:30 145.935-145.965
SEEDS 28 Jun 11:09:19 11:09:43 10° 299° (WNW) 11:10:07 437.485
POPSAT HIP 1 28 Jun 11:11:30 11:15:07 29° 69° (ENE) 11:18:44 437.405
HO-68 28 Jun 11:14:23 11:19:37 22° 304° (WNW) 11:24:51 435.675
CUBEBUG 2 28 Jun 11:17:20 11:20:31 19° 294° (WNW) 11:23:43 437.445
JAS-2 28 Jun 11:21:06 11:26:03 20° 59° (ENE) 11:30:43 435.910
BEESAT 2 28 Jun 11:21:37 11:24:40 20° 45° (NE) 11:27:42 435.950
YUBILEINY 28 Jun 11:23:00 11:24:44 11° 72° (ENE) 11:26:28 435.215
QB50P2 28 Jun 11:23:19 11:27:16 41° 71° (ENE) 11:31:15 145.880/145.840
HUMSAT D 28 Jun 11:24:43 11:29:02 69° 101° (E) 11:33:19 437.325/437.525
POLYITAN 1 28 Jun 11:25:56 11:29:53 42° 72° (ENE) 11:33:53 437.675
DUCHIFAT 1 28 Jun 11:26:02 11:29:52 37° 71° (ENE) 11:33:44 145.980
ANTELSAT 28 Jun 11:27:45 11:31:33 30° 264° (W) 11:35:27 437.575/2403.000
Cosmos 2491 28 Jun 11:29:44 11:37:41 37° 71° (ENE) 11:45:35 435.465 / 435.565
AUBIESAT-1 28 Jun 11:32:28 11:35:32 22° 296° (WNW) 11:38:46 437.475
ZACube-1 28 Jun 11:45:14 11:48:29 20° 294° (WNW) 11:51:44 437.345
ISS 28 Jun 11:48:53 11:51:06 17° 349° (NNW) 11:53:18 145.825
Oscar 11 28 Jun 11:56:45 11:58:56 14° 297° (WNW) 12:01:06 145.826/435.025
DELFI C3 28 Jun 12:01:44 12:04:42 20° 293° (WNW) 12:07:39 145.870
FUNcube-1 28 Jun 12:03:46 12:06:06 14° 297° (WNW) 12:08:27 145.935
